Weather History for Sarasota, FL

Change the Weather History Date:

Wednesday, December 14, 2011

  Actual Average Record
Temperature  
Mean Temperature 70 °F 64 °F  
Max Temperature 80 °F 73 °F 90 °F (1971)
Min Temperature 59 °F 54 °F 23 °F (1962)
Degree Days  
Heating Degree Days 0 4  
Month to date heating degree days 15 43  
Since 1 July heating degree days 28 76  
Cooling Degree Days 5 3  
Month to date cooling degree days 58 42  
Year to date cooling degree days 3583 3342  
Growing Degree Days 20 (Base 50)    
Moisture  
Dew Point 57 °F    
Average Humidity 71    
Maximum Humidity 97    
Minimum Humidity 42    
Precipitation  
Precipitation 0.00 in 0.08 in 3.07 in (2003)
Month to date precipitation 0.14 1.02  
Year to date precipitation 40.57 51.50  
Sea Level Pressure  
Sea Level Pressure 30.23 in    
Wind  
Wind Speed 8 mph (ENE)    
Max Wind Speed 18 mph    
Max Gust Speed 24 mph    
Visibility 10 miles    
Events      
T = Trace of Precipitation, MM = Missing Value Source: NWS Daily Summary

Daily Weather History Graph

Daily Weather History Graph

Search for Another Location

Airport:

Trip Planner

Search our weather history database for the weather conditions in past years. The results will help you decide how hot, cold, wet, or windy it might be!

Date:

Astronomy

Dec. 14, 2011 Rise Set
Actual Time 7:11 AM EST 5:37 PM EST
Civil Twilight 6:46 AM EST 6:03 PM EST
Nautical Twilight 6:17 AM EST 6:32 PM EST
Astronomical Twilight 5:48 AM EST 7:00 PM EST
Moon 9:40 PM EST (12/14) 10:09 AM EST (12/14)
Length of Visible Light 11h 16m
Length of Day
10h 25m
Waning Gibbous, 83% of the Moon is Illuminated
Dec 14
Waning Gibbous
Dec 17
Last Quarter
Dec 24
New
Jan 1
First Quarter
Jan 9
Full

Hourly Weather History & Observations

Time (EST) Temp. Dew Point Humidity Pressure Visibility Wind Dir Wind Speed Gust Speed Precip Events Conditions
12:53 AM 64.0 °F 61.0 °F 90% 30.25 in 10.0 mi NE 8.1 mph - N/A   Clear
1:53 AM 63.0 °F 60.1 °F 90% 30.24 in 10.0 mi NE 6.9 mph - N/A   Clear
2:53 AM 62.6 °F 60.8 °F 94% 30.24 in 10.0 mi NNE 4.6 mph - N/A   Clear
3:53 AM 62.1 °F 60.1 °F 93% 30.23 in 10.0 mi NNE 5.8 mph - N/A   Clear
4:53 AM 62.1 °F 59.0 °F 90% 30.23 in 10.0 mi NE 5.8 mph - N/A   Clear
5:53 AM 61.0 °F 59.0 °F 93% 30.23 in 10.0 mi NNE 5.8 mph - N/A   Clear
6:53 AM 60.8 °F 59.0 °F 94% 30.24 in 10.0 mi NE 5.8 mph - N/A   Clear
7:53 AM 62.1 °F 59.0 °F 90% 30.26 in 10.0 mi NNE 5.8 mph - N/A   Clear
8:53 AM 66.0 °F 60.1 °F 81% 30.27 in 10.0 mi NE 10.4 mph - N/A   Clear
9:53 AM 72.0 °F 60.1 °F 66% 30.27 in 10.0 mi ENE 11.5 mph - N/A   Clear
10:53 AM 75.0 °F 60.1 °F 60% 30.26 in 10.0 mi ENE 13.8 mph 20.7 mph N/A   Clear
11:53 AM 77.0 °F 57.0 °F 50% 30.23 in 10.0 mi ENE 15.0 mph - N/A   Clear
12:53 PM 79.0 °F 57.9 °F 48% 30.21 in 10.0 mi ENE 15.0 mph - N/A   Partly Cloudy
1:53 PM 79.0 °F 55.0 °F 44% 30.18 in 10.0 mi East 13.8 mph 20.7 mph N/A   Partly Cloudy
2:53 PM 79.0 °F 54.0 °F 42% 30.17 in 10.0 mi ENE 13.8 mph 20.7 mph N/A   Scattered Clouds
3:53 PM 79.0 °F 55.0 °F 44% 30.16 in 10.0 mi East 10.4 mph - N/A   Partly Cloudy
4:53 PM 75.9 °F 55.0 °F 48% 30.17 in 10.0 mi East 11.5 mph 21.9 mph N/A   Clear
5:53 PM 72.0 °F 54.0 °F 53% 30.18 in 10.0 mi East 8.1 mph - N/A   Clear
6:53 PM 69.1 °F 54.0 °F 58% 30.21 in 10.0 mi East 8.1 mph - N/A   Clear
7:53 PM 66.0 °F 55.0 °F 68% 30.23 in 10.0 mi East 5.8 mph - N/A   Clear
8:53 PM 64.9 °F 55.0 °F 70% 30.25 in 10.0 mi East 5.8 mph - N/A   Clear
9:53 PM 63.0 °F 55.0 °F 75% 30.25 in 10.0 mi East 5.8 mph - N/A   Clear
10:53 PM 61.0 °F 55.0 °F 81% 30.25 in 10.0 mi Calm Calm - N/A   Clear
11:53 PM 61.0 °F 55.0 °F 81% 30.24 in 10.0 mi ENE 3.5 mph - N/A   Clear